SCP
0 0 -0 0 0 0 0 0 0 0 0 0 0 0 0 0 0 0 -0 -0 0 -0 -0 -0 -0 -0 -0 -0 -0 0 0 0
0 0 0 0 0 0 0 0 0 0 0 0 -0 0 0 0 0 0 0 -0 -0 -0 -0 0 -0 -0 -0 -0 -0 0 0 0
0 0 0 0 0 0 0 0 0 0 0 0 0 0 0 0 0 0 0 -0 0 -0 -0 0 -0 -0 -0 -0 -0 0 0 0
0 0 0 0 0 0 0 0 0 0 0 0 0 0 0 0 0 0 0 0 0 -0 -0 -0 -0 -0 -0 -0 -0 -0 0 0
0 0 -0 -0 0 0 0 0 0 0 0 0 -0 0 0 0 0 0 0 0 0 0 0 0 0 -0 -0 -0 -0 -0 0 0
0 -0 -0 -0 0 0 0 0 0 0 0 0 -0 0 0 0 0 0 0 0 0 0 0 -0 -0 0 0 0 0 -0 0 0
0 0 0 0 0 0 0 0 0 0 0 -0 0 0 0 0 0 0 0 0 0 0 0 0 -0 -0 0 0 0 0 0 0
0 0 0 0 0 0 -0 0 0 0 0 0 0 0 0 0 0 0 0 0 0 0 0 0 0 0 0 0 0 0 0 0
0 0 0 0 -0 -0 -0 0 0 0 0 0 0 0 0 0 -0 0 0 0 0 0 0 0 0 0 0 0 0 0 0 0
0 0 0 0 -0 -0 0 0 0 0 0 0 0 0 0 0 -0 0 0 0 0 0 0 0 0 0 0 0 0 0 0 0
0 0 0 0 0 0 0 -0 -0 0 0 0 0 0 0 0 0 0 0 0 0 0 0 0 0 0 0 0 0 0 0 0
0 0 0 0 0 0 -0 -0 -0 -0 0 0 0 0 0 0 0 0 0 0 1 0 0 0 0 0 0 0 0 0 0 0
0 0 0 0 0 0 -0 -0 -0 -0 0 0 0 0 0 0 0 0 0 0 1 1 0 0 0 0 0 0 0 0 0 0
0 0 0 0 0 0 0 0 -0 -0 0 -0 0 0 0 0 0 0 0 0 0 1 1 0 0 0 0 0 0 0 0 0
0 0 0 0 0 0 0 0 0 0 0 0 0 0 0 0 0 0 0 0 0 0 1 0 0 0 0 0 0 0 0 0
0 0 0 0 0 0 0 0 0 0 0 0 0 0 0 0 0 0 0 0 0 0 1 0 0 0 0 1 0 0 0 0
0 0 0 0 0 0 0 0 0 0 0 -0 0 0 0 0 0 0 0 0 0 0 0 1 0 1 1 1 1 1 0 1
0 0 0 0 0 0 -0 -0 -0 -0 -0 -0 -0 0 0 0 0 0 0 0 0 0 0 1 1 1 1 1 1 1 1 1
0 -0 0 -0 -0 -0 0 0 0 -0 -0 -0 -0 -0 -0 0 0 0 0 0 0 0 0 1 1 1 0 1 1 1 1 1
0 0 -0 0 -0 -0 -0 -0 0 0 0 0 -0 -0 -0 -0 -0 0 0 0 0 0 0 2 2 2 1 2 2 1 2 1
Wind_Speed_500mb
6 7 11 9 7 6 21 45 45 18 33 19 12 52 29 68 84 88 84 81 77 73 70 64 58 53 47 43 38 34 31 28
5 21 9 8 10 12 23 46 21 34 18 12 37 37 58 87 85 89 85 81 76 73 69 63 58 53 45 39 36 33 30 28
7 12 7 5 7 19 16 20 46 45 20 16 30 48 67 88 88 89 86 84 79 74 69 63 58 53 45 38 34 32 29 28
12 17 4 5 9 10 12 27 53 31 29 11 24 50 79 86 92 88 85 83 79 73 68 62 58 53 47 39 34 32 30 28
8 8 8 3 9 10 11 19 23 57 14 21 17 32 81 85 93 90 82 79 77 73 69 63 58 52 48 41 35 32 30 28
9 8 9 8 13 18 20 19 53 29 12 20 30 36 70 82 93 91 84 78 76 74 70 65 60 55 48 44 39 33 30 29
9 6 5 25 6 4 33 24 46 27 38 48 5 27 63 81 91 87 83 78 74 73 70 64 59 56 52 48 44 40 35 34
7 4 8 23 17 35 26 51 41 57 53 47 34 4 42 54 80 88 82 77 74 71 68 64 61 59 55 52 51 45 41 38
6 10 20 28 40 35 30 35 19 43 52 57 41 17 15 18 58 76 82 79 79 76 71 67 65 61 58 56 53 48 45 42
5 28 29 16 39 40 48 60 47 49 62 56 48 31 23 20 34 65 80 81 81 77 75 72 68 64 61 59 55 54 49 47
15 20 29 45 39 31 77 65 43 51 56 52 50 41 31 29 29 51 76 84 85 83 80 79 77 72 69 65 61 56 51 50
7 14 17 17 29 31 69 47 53 41 42 43 39 42 41 34 27 24 59 88 86 86 85 83 81 78 75 71 64 61 55 51
8 12 14 23 23 35 62 54 57 57 59 61 46 39 46 46 45 37 30 33 58 86 83 83 84 82 79 74 66 62 57 53
9 7 13 15 39 15 18 32 33 31 36 44 38 35 40 50 55 49 43 43 44 51 74 87 83 86 79 68 64 58 57 56
13 10 8 7 11 13 38 24 35 34 43 53 61 55 45 41 44 54 56 50 51 49 58 71 94 83 79 69 57 53 53 55
8 12 10 19 22 12 24 19 22 30 44 51 53 57 58 58 47 46 51 66 61 48 51 74 76 89 86 67 59 57 54 53
9 12 10 17 36 20 16 14 18 26 39 44 53 58 63 61 53 51 49 52 65 63 53 59 84 81 87 80 71 66 59 60
6 8 13 17 44 26 9 14 17 27 27 39 63 67 64 65 63 56 56 55 58 70 67 60 80 83 79 83 83 75 69 65
8 10 10 15 39 13 6 12 24 17 34 53 55 57 57 60 61 58 60 62 59 63 70 71 63 97 95 96 90 83 78 66
10 15 7 9 23 35 11 12 6 37 50 40 36 48 56 64 72 67 67 65 64 61 58 67 63 80 105 101 96 84 75 71
Wind_Direction_500mb
136 169 196 219 228 346 301 321 312 302 306 276 237 191 183 173 168 172 167 169 168 172 171 171 173 172 171 172 173 173 175 175
113 239 260 207 313 322 328 327 326 328 300 297 225 202 178 167 170 172 171 170 172 176 175 176 181 179 178 180 182 184 188 190
278 253 244 221 279 310 300 288 306 321 305 285 210 176 176 171 173 175 174 173 176 179 178 180 187 186 185 188 191 195 199 204
242 243 309 291 279 304 297 304 325 331 326 297 202 181 172 175 176 178 176 176 178 182 183 186 191 193 193 196 199 202 209 214
251 271 321 322 309 283 312 319 327 324 316 321 267 206 178 179 180 179 180 180 183 185 189 191 195 202 200 201 207 210 215 222
229 267 287 273 338 309 352 314 334 345 11 330 326 212 191 186 183 183 182 186 186 189 193 195 198 206 207 206 212 219 224 230
230 140 230 312 356 186 325 313 334 334 347 17 81 210 190 187 186 188 187 191 192 194 197 199 202 206 212 211 213 219 227 236
225 101 322 296 305 322 333 316 316 315 329 353 12 285 200 195 194 193 194 195 199 202 203 203 206 210 216 218 218 219 227 238
285 313 305 302 301 314 296 284 297 301 318 330 335 9 178 257 221 205 201 202 205 206 208 209 212 214 219 223 226 226 229 237
256 284 290 273 297 300 279 269 288 293 302 306 311 322 318 312 257 237 212 209 210 209 211 213 216 219 224 227 230 233 236 238
320 301 284 284 279 267 279 285 295 298 298 294 299 297 310 303 317 243 235 221 217 216 217 217 219 221 225 228 232 235 240 244
295 276 248 248 270 270 268 292 302 302 305 298 286 287 292 290 298 327 245 235 228 220 221 222 222 225 228 230 232 236 237 244
217 247 233 239 259 247 273 295 295 302 296 302 300 287 280 287 289 290 286 270 248 245 231 227 227 229 230 231 233 235 233 246
278 262 259 192 253 284 334 342 336 353 326 337 333 327 310 300 291 285 284 270 270 250 247 239 234 232 235 234 232 231 239 248
309 320 281 194 311 328 327 328 320 333 331 331 325 320 326 315 301 299 285 278 269 265 253 247 240 240 236 231 232 234 242 246
261 299 317 296 274 269 299 306 305 319 328 330 329 329 327 327 313 313 291 285 268 264 258 251 242 239 242 234 235 240 243 245
269 285 312 289 294 300 284 276 287 309 320 323 326 328 319 314 312 301 297 295 278 268 269 262 245 235 231 231 234 238 248 250
272 320 327 305 292 293 270 258 269 301 314 322 319 321 320 313 312 303 300 298 288 279 273 263 244 232 227 227 231 237 246 246
271 302 266 307 290 258 264 285 305 303 311 310 311 318 326 320 314 305 294 296 299 289 274 269 254 238 234 227 229 233 241 240
330 350 305 53 290 290 267 271 297 299 308 331 331 320 318 316 313 307 289 291 293 298 281 261 251 245 235 229 229 235 241 242
Wind_Speed_850mb
6 7 11 9 7 6 21 45 45 18 33 19 12 52 29 68 84 88 84 81 77 73 70 64 58 53 47 43 38 34 31 28
5 21 9 8 10 12 23 46 21 34 18 12 37 37 58 87 85 89 85 81 76 73 69 63 58 53 45 39 36 33 30 28
7 12 7 5 7 19 16 20 46 45 20 16 30 48 67 88 88 89 86 84 79 74 69 63 58 53 45 38 34 32 29 28
12 17 4 5 9 10 12 27 53 31 29 11 24 50 79 86 92 88 85 83 79 73 68 62 58 53 47 39 34 32 30 28
8 8 8 3 9 10 11 19 23 57 14 21 17 32 81 85 93 90 82 79 77 73 69 63 58 52 48 41 35 32 30 28
9 8 9 8 13 18 20 19 53 29 12 20 30 36 70 82 93 91 84 78 76 74 70 65 60 55 48 44 39 33 30 29
9 6 5 25 6 4 33 24 46 27 38 48 5 27 63 81 91 87 83 78 74 73 70 64 59 56 52 48 44 40 35 34
7 4 8 23 17 35 26 51 41 57 53 47 34 4 42 54 80 88 82 77 74 71 68 64 61 59 55 52 51 45 41 38
6 10 20 28 40 35 30 35 19 43 52 57 41 17 15 18 58 76 82 79 79 76 71 67 65 61 58 56 53 48 45 42
5 28 29 16 39 40 48 60 47 49 62 56 48 31 23 20 34 65 80 81 81 77 75 72 68 64 61 59 55 54 49 47
15 20 29 45 39 31 77 65 43 51 56 52 50 41 31 29 29 51 76 84 85 83 80 79 77 72 69 65 61 56 51 50
7 14 17 17 29 31 69 47 53 41 42 43 39 42 41 34 27 24 59 88 86 86 85 83 81 78 75 71 64 61 55 51
8 12 14 23 23 35 62 54 57 57 59 61 46 39 46 46 45 37 30 33 58 86 83 83 84 82 79 74 66 62 57 53
9 7 13 15 39 15 18 32 33 31 36 44 38 35 40 50 55 49 43 43 44 51 74 87 83 86 79 68 64 58 57 56
13 10 8 7 11 13 38 24 35 34 43 53 61 55 45 41 44 54 56 50 51 49 58 71 94 83 79 69 57 53 53 55
8 12 10 19 22 12 24 19 22 30 44 51 53 57 58 58 47 46 51 66 61 48 51 74 76 89 86 67 59 57 54 53
9 12 10 17 36 20 16 14 18 26 39 44 53 58 63 61 53 51 49 52 65 63 53 59 84 81 87 80 71 66 59 60
6 8 13 17 44 26 9 14 17 27 27 39 63 67 64 65 63 56 56 55 58 70 67 60 80 83 79 83 83 75 69 65
8 10 10 15 39 13 6 12 24 17 34 53 55 57 57 60 61 58 60 62 59 63 70 71 63 97 95 96 90 83 78 66
10 15 7 9 23 35 11 12 6 37 50 40 36 48 56 64 72 67 67 65 64 61 58 67 63 80 105 101 96 84 75 71
Wind_Direction_850mb
136 169 196 219 228 346 301 321 312 302 306 276 237 191 183 173 168 172 167 169 168 172 171 171 173 172 171 172 173 173 175 175
113 239 260 207 313 322 328 327 326 328 300 297 225 202 178 167 170 172 171 170 172 176 175 176 181 179 178 180 182 184 188 190
278 253 244 221 279 310 300 288 306 321 305 285 210 176 176 171 173 175 174 173 176 179 178 180 187 186 185 188 191 195 199 204
242 243 309 291 279 304 297 304 325 331 326 297 202 181 172 175 176 178 176 176 178 182 183 186 191 193 193 196 199 202 209 214
251 271 321 322 309 283 312 319 327 324 316 321 267 206 178 179 180 179 180 180 183 185 189 191 195 202 200 201 207 210 215 222
229 267 287 273 338 309 352 314 334 345 11 330 326 212 191 186 183 183 182 186 186 189 193 195 198 206 207 206 212 219 224 230
230 140 230 312 356 186 325 313 334 334 347 17 81 210 190 187 186 188 187 191 192 194 197 199 202 206 212 211 213 219 227 236
225 101 322 296 305 322 333 316 316 315 329 353 12 285 200 195 194 193 194 195 199 202 203 203 206 210 216 218 218 219 227 238
285 313 305 302 301 314 296 284 297 301 318 330 335 9 178 257 221 205 201 202 205 206 208 209 212 214 219 223 226 226 229 237
256 284 290 273 297 300 279 269 288 293 302 306 311 322 318 312 257 237 212 209 210 209 211 213 216 219 224 227 230 233 236 238
320 301 284 284 279 267 279 285 295 298 298 294 299 297 310 303 317 243 235 221 217 216 217 217 219 221 225 228 232 235 240 244
295 276 248 248 270 270 268 292 302 302 305 298 286 287 292 290 298 327 245 235 228 220 221 222 222 225 228 230 232 236 237 244
217 247 233 239 259 247 273 295 295 302 296 302 300 287 280 287 289 290 286 270 248 245 231 227 227 229 230 231 233 235 233 246
278 262 259 192 253 284 334 342 336 353 326 337 333 327 310 300 291 285 284 270 270 250 247 239 234 232 235 234 232 231 239 248
309 320 281 194 311 328 327 328 320 333 331 331 325 320 326 315 301 299 285 278 269 265 253 247 240 240 236 231 232 234 242 246
261 299 317 296 274 269 299 306 305 319 328 330 329 329 327 327 313 313 291 285 268 264 258 251 242 239 242 234 235 240 243 245
269 285 312 289 294 300 284 276 287 309 320 323 326 328 319 314 312 301 297 295 278 268 269 262 245 235 231 231 234 238 248 250
272 320 327 305 292 293 270 258 269 301 314 322 319 321 320 313 312 303 300 298 288 279 273 263 244 232 227 227 231 237 246 246
271 302 266 307 290 258 264 285 305 303 311 310 311 318 326 320 314 305 294 296 299 289 274 269 254 238 234 227 229 233 241 240
330 350 305 53 290 290 267 271 297 299 308 331 331 320 318 316 313 307 289 291 293 298 281 261 251 245 235 229 229 235 241 242